BREEZE-M R/B, 37870

Orbit data source: Space-Track

BREEZE-M R/B, 37870 is space debris in MEO originally from a launch on Fri, 04 Nov 2011 UTC launched from the Tyuratam Missile And Space Complex (TTMTR). Debris objects in space refer to the collection of defunct objects orbiting the Earth. Examples of debris include non-operational satellites, rocket bodies, and fragments generated from explosions, collisions, or faulty payload assembly.

Loading next visibility...
Identifier
37870, 2011-064D
Orbit
MEO
Last TLE update
19 hours ago
Origin
Manufacturer
Khrunichev
Mission
Spacecraft
Bus & Motor
BRIZ, Unknown motor
Mass
~1,600 kg wet, 1,600 kg dry
Launch date (UTC)
2011-11-04 (14 years ago)
Launch vehicle
Unknown
Launch site
Tyuratam Missile And Space Complex (TTMTR)
Object type
Payload
Rocket body
Debris
Shape & HBR
Cyl, 4 m
Radar Cross Section
14.451 m², Large (>1 m²)

Expand to show TLE details & history

TLE from 19 hours ago
0 BREEZE-M R/B
1 37870U 11064D   25192.17825218 -.00000006  00000-0  00000-0 0  9997
2 37870  65.5057  61.2082 0261076 296.9271 230.7213  2.25567054112673
Epoch: 2025-07-11T04:16Z
TLE epoch observation values (Epoch: 2025-07-11T04:16:40.988Z)
Latitude
13.31787°
Longitude
-118.45935°
Altitude
18,596.563 km
Speed
3.961 km/s
True Right ascension
15h 40m 10s
True Declination
13° 17' 45"
Sunlit
Object was in daylight at epoch
Visualization orbit readout
Latitude
63.25144°
Longitude
-176.7851°
Altitude
18,807.338 km
Speed
3.93 km/s
Apparent Right ascension
11h 41m 14s
Apparent Declination
70° 40' 55"
Sunlit
Object is in daylight
Visualization observer readout
Local Sidereal Time
11:54:17
Azimuth
357.895° N
Elevation
59.188°
Doppler factor
1
Orbital elements
Apogee altitude
18,822.037 km
Perigee altitude
17,539.684 km
Semi-major axis
24,558.998 km
Eccentricity
0.02611
Inclination
65.5057°
RAAN
61.2082°
Arg. of periapsis
296.9271°
True anomaly
Unknown
Mean anomaly
230.7213°
Eccentric anomaly
Unknown
Mean motion
0.56393 °/min
Orbital period
638.37 mins
BSTAR
0
Loading maneuver chart data...
Loading SW <> Apogee altitude chart data...
Loading historical data...
Loading historical data...
Loading historical data...
Loading historical data...
Loading historical data...
Loading historical data...
Loading historical data...

BREEZE-M R/B Visibility forecast

Observer location: undefined°, undefined°

Span
Click to sort rows by Start time (UTC) header in descending order
Start Az.
Max El. time (UTC)
Max El. Az.
Max El.
End time (UTC)
End Az.
186 mins2025-07-11 23:34:15.435Z357.893° N2025-07-12 00:18:15.435Z53.363° ENE42.703°2025-07-12 02:40:15.435Z153.297° SSE
339 mins2025-07-12 17:16:15.435Z213.913° SW2025-07-12 19:34:15.435Z314.311° NW41.88°2025-07-12 22:55:15.435Z96.846° ESE
|